FW9014 Weather Reports


time (UTC)temp
C
wind
direction
speed
KPH
gust
KPH
rain 1hr
cm
rain 24hr
cm
rain mn
cm
humidity
%
barometer
mb
20260505153047 23 214 17.7 24.1 0.00 0.03 0.00 87 1009.9
20260505151553 23 196 16.1 22.5 0.00 0.03 0.00 87 1009.9
20260505150105 23 205 19.3 29.0 0.00 0.03 0.00 88 1009.8
20260505124553 21 177 17.7 25.7 0.00 0.03 0.00 93 1009.4
20260505123057 20 164 17.7 24.1 0.00 0.03 0.00 92 1009.0
20260505121544 20 179 16.1 22.5 0.00 0.03 0.00 93 1009.4
20260505120051 20 163 17.7 24.1 0.00 0.03 0.00 93 1009.1
20260505114552 20 171 14.5 22.5 0.00 0.03 0.00 93 1009.3
20260505113047 20 187 16.1 22.5 0.00 0.03 0.00 93 1009.3
20260505111546 20 174 19.3 29.0 0.00 0.03 0.00 93 1008.8
20260505101551 20 171 14.5 20.9 0.00 0.03 0.00 92 1009.0
20260505100048 20 167 17.7 22.5 0.00 0.03 0.00 91 1008.8
20260505094552 20 165 17.7 20.9 0.00 0.03 0.00 91 1009.0
20260505093053 20 186 16.1 19.3 0.00 0.03 0.00 91 1009.2
20260505091543 20 175 14.5 22.5 0.00 0.03 0.00 90 1009.4
20260505090053 20 182 16.1 20.9 0.00 0.03 0.00 90 1009.4
20260505084554 20 171 14.5 19.3 0.00 0.03 0.00 89 1009.4
20260505083058 20 171 12.9 17.7 0.00 0.03 0.00 89 1009.7
20260505081558 20 175 12.9 19.3 0.00 0.03 0.00 88 1009.9
20260505080051 20 171 16.1 20.9 0.00 0.03 0.00 88 1009.6
20260505074542 21 176 16.1 19.3 0.00 0.05 0.00 87 1009.8
20260505073049 21 198 17.7 24.1 0.00 0.05 0.00 86 1009.9
20260505071550 21 194 17.7 24.1 0.00 0.05 0.00 86 1010.1
20260505070048 21 201 20.9 29.0 0.00 0.05 0.00 85 1010.2
20260505064549 21 191 20.9 29.0 0.00 0.05 0.00 85 1010.5
20260505063051 21 194 22.5 29.0 0.00 0.05 0.00 84 1010.4
20260505061550 21 201 22.5 30.6 0.00 0.05 0.00 83 1010.4
20260505060052 22 198 25.7 38.6 0.00 0.05 0.00 83 1010.6
20260505054556 22 197 27.4 35.4 0.00 0.05 0.00 82 1010.5
20260505053047 22 200 27.4 37.0 0.00 0.05 0.00 83 1010.7
20260505051544 22 198 29.0 35.4 0.00 0.05 0.00 82 1010.9
20260505041549 21 188 25.7 37.0 0.03 0.05 0.05 83 1011.0
20260505040047 21 186 27.4 40.2 0.03 0.05 0.05 82 1011.2
20260505034552 21 186 27.4 35.4 0.00 0.03 0.03 82 1011.1
20260505033049 21 186 29.0 37.0 0.00 0.03 0.03 82 1011.2
20260505031557 21 177 29.0 40.2 0.00 0.03 0.03 82 1011.2
20260505024551 22 181 30.6 40.2 0.00 0.03 0.03 80 1011.1
20260505023048 22 179 29.0 41.8 0.00 0.03 0.03 79 1010.9
20260505021550 22 182 30.6 41.8 0.00 0.03 0.03 79 1010.8
20260505020050 22 185 30.6 40.2 0.00 0.03 0.03 78 1010.6
20260505014602 22 196 30.6 41.8 0.00 0.03 0.03 78 1010.5
20260505013047 22 180 27.4 37.0 0.00 0.03 0.03 77 1010.6
20260505011551 22 178 29.0 40.2 0.00 0.03 0.03 77 1010.5
20260505010045 22 174 32.2 43.5 0.00 0.03 0.03 75 1010.4
20260505004556 23 194 32.2 41.8 0.00 0.03 0.03 76 1010.6
20260505003047 23 180 32.2 40.2 0.00 0.03 0.03 74 1010.6
20260505001548 23 174 30.6 43.5 0.00 0.03 0.03 75 1010.7
20260505000057 23 182 27.4 41.8 0.00 0.03 0.03 73 1010.7
20260504234553 23 180 27.4 37.0 0.00 0.03 0.03 74 1010.5
20260504233052 23 190 30.6 46.7 0.00 0.03 0.03 73 1010.7
20260504231547 24 174 25.7 40.2 0.00 0.03 0.03 73 1011.1
20260504230050 24 187 27.4 37.0 0.00 0.03 0.03 72 1011.0
20260504224548 24 169 27.4 38.6 0.00 0.03 0.03 72 1011.2
20260504223054 24 171 30.6 40.2 0.00 0.03 0.03 71 1011.3
20260504221549 24 164 22.5 33.8 0.00 0.03 0.03 71 1011.4
20260504220048 25 182 20.9 30.6 0.00 0.03 0.03 70 1011.5
20260504214554 25 191 19.3 32.2 0.00 0.03 0.03 67 1011.7
20260504213048 25 191 20.9 30.6 0.00 0.03 0.03 67 1012.0
20260504211550 25 182 20.9 32.2 0.00 0.03 0.03 68 1012.1
20260504210059 25 213 17.7 29.0 0.00 0.03 0.03 64 1012.4
20260504204606 25 196 22.5 30.6 0.00 0.03 0.03 62 1012.4
20260504203101 25 199 22.5 33.8 0.00 0.03 0.03 63 1012.8
20260504201550 25 191 19.3 25.7 0.00 0.03 0.03 66 1013.3
20260504200049 25 200 14.5 25.7 0.00 0.03 0.03 62 1013.3
20260504194549 25 196 17.7 27.4 0.00 0.03 0.03 62 1013.7
20260504193057 25 215 19.3 30.6 0.00 0.03 0.03 61 1013.7
20260504191557 25 201 19.3 33.8 0.00 0.03 0.03 61 1013.9
20260504190054 25 207 19.3 22.5 0.00 0.03 0.03 59 1014.1
20260504184549 24 188 16.1 25.7 0.00 0.03 0.03 60 1014.2
20260504183047 24 195 19.3 27.4 0.00 0.03 0.03 62 1014.4
20260504181553 23 200 20.9 32.2 0.00 0.03 0.03 61 1014.6
20260504180106 23 209 17.7 24.1 0.00 0.03 0.03 62 1014.7
20260504174547 23 205 19.3 32.2 0.00 0.03 0.03 63 1015.1
20260504173109 23 200 20.9 32.2 0.00 0.03 0.03 63 1015.2
20260504171551 23 192 16.1 25.7 0.00 0.03 0.03 63 1015.3